Location: ?
(35.4996°N, 139.3166°E)
Time: 12:47:53
(UTC+00:00)

Cosmos 1980 Rocket - Pass Details

Date: 18 April 2024
Orbit: 827 x 851 km, 71.0° (Epoch: 17 May)

Event Time Altitude Azimuth Distance (km) Brightness Sun altitude
Exits shadow 13:26:31 22° 354° (N) 1,754 4.3 -40.1°
Drops below altitude 10° 13:28:39 10° 7° (N) 2,455 5.1 -40.3°
Sets 13:31:15 0° 14° (NNE) 3,397 5.9 -40.5°
